CW2613 Weather Reports


Display with metric or nautical units.
time (UTC)temp
F
wind
direction
speed
MPH
gust
MPH
rain 1hr
in
rain 24hr
in
rain mn
in
humidity
%
barometer
mb
20260904100047 0 0.0 0.0 0.00 0.00 0.00 1012.9
20260904094543 0 0.0 0.0 0.00 0.00 0.00 1012.8
20260904093055 0 0.0 0.0 0.00 0.00 0.00 1012.7
20260904091535 0 0.0 0.0 0.00 0.00 0.00 1012.6
20260904090029 0 0.0 0.0 0.00 0.00 0.00 1012.4
20260904084525 0 0.0 0.0 0.00 0.00 0.00 1012.5
20260904083021 0 0.0 0.0 0.00 0.00 0.00 1012.4
20260904081517 0 0.0 0.0 0.00 0.00 0.00 1012.4
20260904080012 0 0.0 0.0 0.00 0.00 0.00 1012.4
20260904074508 0 0.0 0.0 0.00 0.00 0.00 1012.2
20260904073015 0 0.0 0.0 0.00 0.00 0.00 1012.3
20260904071601 0 0.0 0.0 0.00 0.00 0.00 1012.3
20260904070057 0 0.0 0.0 0.00 0.00 0.00 1012.3
20260904064550 0 0.0 0.0 0.00 0.00 0.00 1012.5
20260904063050 0 0.0 0.0 0.00 0.00 0.00 1012.6
20260904061542 0 0.0 0.0 0.00 0.00 0.00 1012.7
20260904060037 0 0.0 0.0 0.00 0.00 0.00 1012.9
20260904054533 0 0.0 0.0 0.00 0.00 0.00 1013.1
20260904053031 0 0.0 0.0 0.00 0.00 0.00 1013.0
20260904051527 0 0.0 0.0 0.00 0.00 0.00 1012.9
20260904050020 0 0.0 0.0 0.00 0.00 0.00 1013.0
20260904044516 0 0.0 0.0 0.00 0.00 0.00 1013.2
20260904043011 77 182 0.0 0.0 0.00 0.00 0.00 1 1013.3
20260904041506 77 186 0.0 0.0 0.00 0.00 0.00 1 1013.3
20260904040002 78 186 0.0 0.0 0.00 0.00 0.00 1 1013.4
20260904034602 78 186 0.0 0.0 0.00 0.00 0.00 1 1013.5
20260904033104 78 186 0.0 0.0 0.00 0.00 0.00 1 1013.5
20260904031549 77 186 0.0 0.0 0.00 0.00 0.00 1 1013.3
20260904030044 78 186 0.0 0.0 0.00 0.00 0.00 1 1013.5
20260904024539 77 186 0.0 0.0 0.00 0.00 0.00 1 1013.4
20260904023038 77 186 0.0 0.0 0.00 0.00 0.00 1 1013.4
20260904021533 77 186 0.0 0.0 0.00 0.00 0.00 1 1013.6
20260904020027 77 186 0.0 0.0 0.00 0.00 0.00 1 1013.7
20260904014522 77 186 0.0 0.0 0.00 0.00 0.00 1 1013.8
20260904013019 77 186 0.0 0.0 0.00 0.00 0.00 1 1013.5
20260904011515 77 186 0.0 0.0 0.00 0.00 0.00 1 1013.3
20260904010009 76 186 0.0 0.0 0.00 0.00 0.00 1 1013.2
20260904004504 76 186 0.0 0.0 0.00 0.00 0.00 1 1013.0
20260904003111 76 186 0.0 0.0 0.00 0.00 0.00 1 1012.8
20260904001555 76 186 0.0 0.0 0.00 0.00 0.00 1 1012.8
20260904000051 76 186 0.0 0.0 0.00 0.00 0.00 1 1013.0
20260903234546 76 186 0.0 0.0 0.00 0.00 0.00 1 1012.7
20260903233042 76 184 0.0 0.0 0.00 0.00 0.00 1 1012.6
20260903231538 76 184 0.0 0.0 0.00 0.00 0.00 1 1012.5
20260903230047 76 184 0.0 0.0 0.00 0.00 0.00 1 1012.5
20260903224530 76 188 0.0 0.0 0.00 0.00 0.00 1 1012.5
20260903223026 76 188 0.0 0.0 0.00 0.00 0.00 1 1012.8
20260903221520 76 177 0.0 0.0 0.00 0.00 0.00 1 1012.7
20260903220015 75 176 0.0 0.0 0.00 0.00 0.00 1 1012.5
20260903214520 75 176 0.0 0.0 0.00 0.00 0.00 1 1012.2
20260903213006 75 188 0.0 0.0 0.00 0.00 0.00 1 1012.1
20260903211501 75 188 0.0 0.0 0.00 0.00 0.00 1 1011.9
20260903210100 76 175 0.0 0.0 0.00 0.00 0.00 1 1011.5
20260903204555 78 152 0.0 4.0 0.00 0.00 0.00 30 1012.6
20260903203048 81 196 0.0 2.0 0.00 0.00 0.00 44 1012.1
20260903201544 86 156 0.0 2.0 0.00 0.00 0.00 53 1012.4
20260903200043 87 189 0.0 0.0 0.00 0.00 0.00 32 1011.8
20260903194534 88 204 0.0 0.0 0.00 0.00 0.00 45 1012.3
20260903193029 88 110 0.0 1.0 0.00 0.00 0.00 46 1011.3
20260903191525 87 205 0.0 0.0 0.00 0.00 0.00 45 1011.8
20260903190023 88 180 0.0 0.0 0.00 0.00 0.00 49 1012.0
20260903184516 90 191 0.0 0.0 0.00 0.00 0.00 54 1012.5
20260903183011 89 179 0.0 0.0 0.00 0.00 0.00 52 1012.2
20260903181506 89 179 0.0 0.0 0.00 0.00 0.00 55 1012.0
20260903180005 88 181 0.0 0.0 0.00 0.00 0.00 52 1012.3
20260903174559 88 173 0.0 0.0 0.00 0.00 0.00 48 1012.7
20260903173102 86 177 0.0 2.0 0.00 0.00 0.00 29 1013.0
20260903171549 86 212 0.0 1.0 0.00 0.00 0.00 28 1013.2
20260903170128 88 188 0.0 0.0 0.00 0.00 0.00 36 1013.2
20260903164543 90 207 0.0 0.0 0.00 0.00 0.00 55 1013.3
20260903163040 92 167 0.0 0.0 0.00 0.00 0.00 61 1013.5
20260903161530 91 185 0.0 0.0 0.00 0.00 0.00 61 1013.6
20260903160037 91 121 0.0 0.0 0.00 0.00 0.00 60 1013.6
20260903154525 91 175 0.0 0.0 0.00 0.00 0.00 58 1013.5
20260903153018 90 173 0.0 0.0 0.00 0.00 0.00 56 1013.6
20260903151512 89 193 0.0 0.0 0.00 0.00 0.00 48 1013.8
20260903150011 89 155 0.0 0.0 0.00 0.00 0.00 44 1013.9
20260903144504 88 150 0.0 0.0 0.00 0.00 0.00 43 1013.8
20260903143101 88 136 0.0 0.0 0.00 0.00 0.00 36 1013.7
20260903141555 87 170 0.0 0.0 0.00 0.00 0.00 35 1013.7
20260903140059 86 195 0.0 0.0 0.00 0.00 0.00 28 1013.6
20260903134547 86 202 0.0 0.0 0.00 0.00 0.00 14 1013.4
20260903133042 84 174 0.0 0.0 0.00 0.00 0.00 1 1013.3
20260903131538 82 188 0.0 0.0 0.00 0.00 0.00 1 1013.2
20260903130034 82 187 0.0 0.0 0.00 0.00 0.00 1 1013.2
20260903124529 80 174 0.0 0.0 0.00 0.00 0.00 1 1013.3
20260903123034 79 176 0.0 0.0 0.00 0.00 0.00 1 1013.4
20260903121520 77 176 0.0 0.0 0.00 0.00 0.00 1 1013.2
20260903120013 77 175 0.0 0.0 0.00 0.00 0.00 1 1013.0
20260903114510 76 175 0.0 0.0 0.00 0.00 0.00 1 1013.0
20260903113017 0 0.0 0.0 0.00 0.00 0.00 1012.9
20260903111501 0 0.0 0.0 0.00 0.00 0.00 1012.6
20260903110104 0 0.0 0.0 0.00 0.00 0.00 1012.4
20260903104600 0 0.0 0.0 0.00 0.00 0.00 1012.2
20260903103049 0 0.0 0.0 0.00 0.00 0.00 1012.2
20260903101545 0 0.0 0.0 0.00 0.00 0.00 1011.9